{"data":{"norad_id":49751,"intl_designator":"2021-115AD","name":"STARLINK-3229","alt_names":[],"object_type":"PAYLOAD","status":"ACTIVE","operator":null,"country":"US","launch_date":"2021-12-02","launch_site_code":"AFETR","launch_vehicle":null,"mission":null,"orbit_class":"UNKNOWN","rcs_meters":null,"size_class":null,"mass_kg":null,"dimensions":null,"purposes":["comms"],"wikipedia_slug":null,"has_3d_model":false,"image_url":null,"decayed_at":null,"tle_current":{"epoch":"2026-05-25T01:59:34.681920Z","epoch_age_seconds":81952,"freshness":"FRESH","line1":"1 49751U 21115AD  26145.08304030 -.00000488  00000+0 -12557-4 0  9997","line2":"2 49751  53.2123 166.1014 0001355  84.2781 275.8365 15.08837233247073","mean_motion":15.08837233,"eccentricity":0.0001355,"inclination_deg":53.2123,"raan_deg":166.1014,"arg_perigee_deg":84.2781,"mean_anomaly_deg":275.8365,"bstar":-1.2557e-5,"rev_number":24707,"period_min":95.437729697117,"perigee_km":538.81447265036,"apogee_km":540.68922052779,"semimajor_km":6917.8888465891,"source":"CELESTRAK","updated_at":"2026-05-25T13:38:16.837057Z"}}}